Wetbulb
54.64 52.92 52.86 53.59 53.15 52.81 52.09 51.66 52.07 51.49 51.69 51.51 50.77 50.62 50.73 49.10 48.88 49.87 49.58 49.56 49.64 49.59
53.39 52.76 52.39 52.30 53.28 52.92 53.39 52.08 51.65 50.64 50.34 50.13 49.88 49.47 50.03 48.25 48.45 48.96 48.91 49.14 49.21 48.36
53.26 52.68 51.76 52.66 51.64 52.10 52.84 51.90 50.75 48.66 48.64 49.12 49.38 49.23 49.50 48.90 48.62 48.50 48.03 48.10 48.64 48.49
52.35 51.99 50.60 49.28 50.46 49.85 51.59 52.13 50.36 48.96 48.34 47.77 48.47 49.04 48.96 48.43 47.89 47.63 47.78 48.21 48.05 47.60
48.23 46.87 47.67 46.90 48.53 50.64 50.72 50.52 50.68 48.41 47.55 46.98 47.21 47.82 47.68 46.86 46.83 46.09 45.92 45.95 45.74 45.34
49.76 49.30 48.16 49.22 50.01 50.58 49.56 48.70 48.32 48.03 47.41 46.95 47.21 47.56 47.89 47.58 46.77 46.46 46.06 45.62 45.51 45.69
50.33 49.71 48.83 47.77 48.21 49.13 49.11 48.96 48.35 48.46 48.07 48.23 48.69 48.76 48.97 48.83 48.28 47.55 47.02 46.61 46.48 46.37
51.19 50.27 49.32 48.56 47.49 47.24 47.39 47.70 49.02 49.19 48.81 48.65 48.47 47.57 47.99 47.97 47.91 47.77 47.56 47.64 47.15 47.51
50.15 50.55 48.68 48.48 48.84 48.33 47.35 47.55 48.17 47.97 48.19 48.56 48.76 44.29 42.84 44.40 47.87 48.41 48.43 47.57 47.72 47.85
48.41 48.76 48.78 49.56 49.36 48.76 49.05 49.43 49.15 49.26 49.24 49.51 50.22 45.59 44.24 44.34 47.40 48.78 49.42 49.03 47.93 47.13
49.43 48.90 49.16 49.38 49.73 50.01 49.81 50.03 49.99 50.29 50.65 50.46 50.68 46.66 44.48 44.56 48.45 49.26 49.86 49.89 48.67 47.63
49.88 49.66 49.73 49.65 49.87 50.60 50.45 50.46 50.66 50.88 51.18 50.99 51.23 46.46 44.41 45.18 49.23 49.32 49.30 49.66 48.92 47.42
50.37 50.23 50.32 50.99 50.64 51.29 51.29 50.92 50.75 51.01 52.13 50.59 51.71 46.96 44.24 45.42 48.87 48.57 48.15 49.54 48.81 45.89
52.02 51.88 52.21 52.26 52.76 52.64 52.07 51.76 51.75 51.35 52.54 52.83 52.05 52.00 44.21 42.87 47.25 47.39 47.09 47.09 45.94 46.69
MSLP
1022.67 1022.36 1022.95 1023.24 1023.20 1023.15 1023.51 1024.16 1025.04 1025.13 1025.07 1025.17 1025.28 1025.18 1024.84 1024.51 1024.31 1024.53 1024.22 1024.29 1024.23 1023.35
1022.92 1023.02 1023.45 1024.03 1024.00 1023.58 1024.03 1024.64 1025.18 1025.36 1025.35 1025.34 1025.46 1025.56 1025.17 1024.97 1024.76 1024.53 1024.41 1024.39 1024.53 1023.85
1023.17 1023.74 1024.21 1024.37 1024.43 1024.25 1024.64 1024.96 1025.28 1025.71 1025.84 1025.47 1025.46 1025.49 1025.01 1024.85 1025.19 1024.94 1024.73 1024.73 1024.74 1024.46
1023.46 1024.19 1024.69 1025.12 1025.01 1024.98 1025.03 1025.06 1025.26 1025.32 1025.47 1025.71 1025.60 1025.55 1025.47 1025.22 1025.32 1025.09 1025.20 1025.25 1025.14 1024.91
1024.27 1024.75 1024.93 1025.39 1025.53 1025.39 1025.26 1025.22 1025.59 1025.39 1025.49 1025.71 1025.84 1025.85 1025.59 1025.52 1025.66 1025.48 1025.42 1025.55 1025.60 1025.19
1024.83 1025.01 1025.27 1024.78 1025.18 1025.20 1025.22 1025.32 1025.72 1025.44 1025.44 1025.59 1025.70 1025.63 1025.88 1025.89 1025.55 1025.45 1025.39 1025.36 1025.24 1025.16
1024.87 1025.60 1025.45 1025.23 1025.27 1025.22 1025.15 1024.93 1025.33 1025.27 1025.47 1025.65 1025.60 1025.60 1025.63 1025.36 1025.29 1025.37 1025.33 1025.18 1025.03 1025.01
1024.38 1025.51 1025.14 1025.17 1025.18 1025.61 1025.54 1025.53 1025.02 1025.13 1025.27 1025.49 1025.37 1024.86 1025.42 1025.33 1025.27 1025.18 1025.03 1024.80 1024.46 1024.09
1023.81 1024.86 1024.73 1025.11 1025.33 1025.33 1025.72 1025.74 1025.28 1025.24 1025.10 1024.97 1024.99 1025.39 1025.83 1025.88 1025.24 1024.99 1024.61 1024.21 1023.84 1023.76
1024.11 1024.31 1024.56 1024.58 1025.15 1024.99 1025.21 1025.14 1025.07 1024.50 1024.70 1024.63 1024.46 1025.00 1025.42 1025.54 1025.05 1024.56 1023.84 1023.63 1023.53 1023.16
1023.48 1023.99 1023.87 1024.04 1024.22 1024.52 1024.59 1024.52 1024.36 1023.88 1024.04 1023.97 1023.63 1024.25 1024.88 1025.02 1024.63 1023.86 1023.26 1022.91 1022.98 1022.82
1022.98 1023.04 1023.18 1023.40 1023.44 1023.67 1023.75 1023.86 1023.59 1023.44 1023.28 1023.25 1023.19 1023.53 1024.16 1024.63 1023.81 1022.82 1022.21 1022.13 1022.16 1022.20
1022.68 1022.81 1022.75 1022.84 1023.18 1023.24 1023.30 1023.05 1022.78 1022.57 1022.55 1022.66 1022.77 1022.84 1023.66 1023.89 1023.29 1022.01 1021.61 1021.38 1021.25 1021.19
1022.33 1022.47 1022.42 1022.64 1022.64 1022.63 1022.55 1022.34 1022.11 1022.12 1022.13 1022.08 1022.03 1022.06 1022.86 1023.42 1023.22 1021.91 1021.27 1020.83 1020.79 1020.88
Wind_Speed
8 6 5 3 4 4 5 6 6 6 6 7 6 6 4 5 5 6 6 8 7 4
6 5 7 5 3 5 5 6 6 6 6 6 6 5 3 6 6 6 6 7 7 6
8 6 5 3 3 5 6 6 6 5 4 5 5 6 5 5 7 7 6 6 7 7
8 7 5 4 3 4 5 6 4 5 5 5 5 5 5 6 6 7 7 6 6 6
8 6 5 5 5 6 5 5 3 4 6 6 6 5 6 7 6 7 7 6 5 6
5 4 4 6 7 6 5 5 5 5 5 6 5 5 5 4 6 5 5 5 6 6
6 5 4 4 5 5 6 6 5 5 4 3 2 2 2 3 4 4 5 5 6 7
8 9 7 5 5 4 4 4 4 4 4 3 3 2 4 4 5 6 6 6 7 7
6 6 5 5 6 6 7 6 5 5 5 5 6 9 5 7 8 8 8 8 7 8
7 8 7 8 8 7 8 7 8 6 7 8 8 10 11 11 10 11 10 9 9 10
8 8 7 7 8 8 7 8 8 7 9 9 8 8 11 11 12 11 12 11 11 11
8 7 6 7 6 7 7 8 8 8 9 9 11 7 10 10 11 13 11 10 11 11
5 6 6 6 7 7 8 9 8 9 9 10 12 9 10 10 10 11 10 10 11 10
6 6 6 7 8 8 9 9 9 10 11 11 10 11 5 9 10 9 10 10 10 10
Wind_Direction
136 127 129 89 120 120 115 108 94 81 84 81 68 68 69 75 65 60 73 53 41 22
104 94 81 105 158 134 112 120 94 84 91 89 79 53 84 65 59 57 46 60 33 10
105 96 98 120 98 94 117 111 110 97 88 88 83 62 29 67 54 49 44 39 31 14
89 74 46 22 108 139 138 139 127 107 96 80 79 69 71 76 50 55 46 32 22 24
114 144 149 164 181 171 149 119 131 117 123 103 81 69 62 54 54 46 38 22 10 3
147 152 146 157 167 158 142 136 141 117 103 86 73 78 73 52 41 39 27 10 353 347
176 195 166 150 167 175 167 149 146 126 121 122 118 104 39 37 16 353 352 339 335 325
177 191 178 148 154 175 197 197 187 184 186 218 241 224 338 335 316 309 312 311 307 311
161 200 172 184 204 193 212 225 222 231 245 249 258 133 212 265 291 299 294 299 312 308
205 215 208 202 220 221 222 226 236 245 261 261 266 190 210 234 262 275 291 293 298 304
200 218 219 221 221 225 230 236 245 247 248 257 262 193 204 221 256 270 274 282 288 296
216 217 219 233 234 236 240 245 251 257 263 267 273 215 209 214 259 261 279 282 282 294
231 239 245 245 249 248 243 251 270 274 269 265 270 262 208 209 264 273 287 286 282 252
242 248 255 259 256 253 254 267 267 271 272 275 283 286 179 202 266 279 296 304 304 306